sat.trackr.live / text

‹ back to catalog

JAY-C

NORAD 62668 · 2025-009BM

PAYLOAD ACTIVE UNKNOWN

§ Identity

Operator
Country
CA
Launch date
2025-01-14
Launch site
AFWTR
Launch vehicle
Mass (kg)
RCS (m²)

External: N2YO · Heavens-Above · Gunter

§ Orbital elements

Epoch: 2026-05-25T04:15:34.170048Z

Period
94.60 min
Inclination
97.3961°
Eccentricity
0.0005905
Mean motion
15.22173974 rev/d
Perigee alt
495.2 km
Apogee alt
503.3 km
Semi-major
6,877.4 km
B*
1.4922e-4
RAAN
224.4746°
Arg perigee
70.1646°
Mean anomaly
290.0226°
Rev number
13,287

§ Raw data

JAY-C1 62668U 25009BM  26145.17747882  .00003356  00000+0  14922-3 0  99932 62668  97.3961 224.4746 0005905  70.1646 290.0226 15.22173974132870

JSON: /api/v1/satellites/62668 · /tle

For live sub-satellite position, see the globe view (requires WebGL).

§ Visibility from observer

Set your observer location to see the next 7 days of passes ≥ 10°. The values pass through the URL so the page stays shareable.

No JS? Fill the form by hand. The geolocation button needs JavaScript.